W4SNA-4 Weather Reports


Display with metric or nautical units.
time (UTC)temp
F
wind
direction
speed
MPH
gust
MPH
rain 1hr
in
rain 24hr
in
rain mn
in
humidity
%
barometer
mb
20260831033217 75 0 0.0 0.0 0.00 0.00 0.00 87 1016.8
20260831032713 75 0 0.0 0.0 0.00 0.00 0.00 87 1016.8
20260831032213 75 0 0.0 0.0 0.00 0.00 0.00 86 1016.7
20260831031713 75 0 0.0 0.0 0.00 0.00 0.00 86 1016.7
20260831031219 75 0 0.0 0.0 0.00 0.00 0.00 86 1016.7
20260831030716 75 0 0.0 0.0 0.00 0.00 0.00 86 1016.9
20260831030229 75 0 0.0 0.0 0.00 0.00 0.00 86 1016.9
20260831025714 75 0 0.0 0.0 0.00 0.00 0.00 86 1016.9
20260831025215 75 0 0.0 0.0 0.00 0.00 0.00 86 1016.9
20260831024713 75 0 0.0 0.0 0.00 0.00 0.00 86 1016.9
20260831024217 75 0 0.0 0.0 0.00 0.00 0.00 86 1016.9
20260831023713 75 0 0.0 0.0 0.00 0.00 0.00 86 1016.9
20260831023214 76 0 0.0 0.0 0.00 0.00 0.00 86 1016.9
20260831022636 76 0 0.0 0.0 0.00 0.00 0.00 85 1016.9
20260831022138 76 0 0.0 0.0 0.00 0.00 0.00 85 1016.9
20260831021636 76 0 0.0 0.0 0.00 0.00 0.00 85 1016.9
20260831021136 76 0 0.0 0.0 0.00 0.00 0.00 85 1016.9
20260831020636 76 0 0.0 0.0 0.00 0.00 0.00 84 1016.9
20260831020136 76 0 0.0 0.0 0.00 0.00 0.00 84 1016.9
20260831015637 76 0 0.0 0.0 0.00 0.00 0.00 84 1016.9
20260831015139 76 0 0.0 0.0 0.00 0.00 0.00 84 1016.7
20260831014636 77 0 0.0 0.0 0.00 0.00 0.00 84 1016.7
20260831014137 77 0 0.0 0.0 0.00 0.00 0.00 84 1016.7
20260831013159 77 0 0.0 0.0 0.00 0.00 0.00 84 1016.5
20260831012658 77 0 0.0 0.0 0.00 0.00 0.00 84 1016.5
20260831012158 77 0 0.0 0.0 0.00 0.00 0.00 84 1016.4
20260831011657 77 0 0.0 0.0 0.00 0.00 0.00 83 1016.4
20260831011158 77 0 0.0 0.0 0.00 0.00 0.00 83 1016.4
20260831010658 77 0 0.0 0.0 0.00 0.00 0.00 83 1016.3
20260831010200 77 0 0.0 0.0 0.00 0.00 0.00 83 1016.3
20260831005701 77 0 0.0 0.0 0.00 0.00 0.00 83 1016.3
20260831005158 78 0 0.0 0.0 0.00 0.00 0.00 83 1016.2
20260831004657 78 0 0.0 0.0 0.00 0.00 0.00 83 1016.2
20260831004158 78 0 0.0 0.0 0.00 0.00 0.00 82 1016.2
20260831003657 78 0 0.0 0.0 0.00 0.00 0.00 82 1016.0
20260831003158 78 0 0.0 0.0 0.00 0.00 0.00 82 1016.0
20260831002700 78 0 0.0 0.0 0.00 0.00 0.00 81 1016.0
20260831002157 78 0 0.0 0.0 0.00 0.00 0.00 81 1016.2
20260831001658 79 0 0.0 1.0 0.00 0.00 0.00 81 1016.2
20260831001157 79 0 0.0 1.0 0.00 0.00 0.00 80 1016.2
20260831000657 79 0 0.0 0.0 0.00 0.00 0.00 80 1016.3
20260831000201 79 0 0.0 0.0 0.00 0.00 0.00 79 1016.3
20260830235657 80 0 0.0 0.0 0.00 0.00 0.00 79 1016.3
20260830235158 80 0 0.0 0.0 0.00 0.00 0.00 78 1016.3
20260830234658 80 0 0.0 0.0 0.00 0.00 0.00 78 1016.3
20260830234157 80 0 0.0 0.0 0.00 0.00 0.00 77 1016.3
20260830233658 81 0 0.0 0.0 0.00 0.00 0.00 76 1016.3
20260830233157 81 0 0.0 0.0 0.00 0.00 0.00 75 1016.3
20260830232659 81 0 0.0 0.0 0.00 0.00 0.00 74 1016.3
20260830232158 81 0 0.0 0.0 0.00 0.00 0.00 74 1016.1
20260830231657 81 0 0.0 0.0 0.00 0.00 0.00 74 1016.1
20260830231158 81 0 0.0 0.0 0.00 0.00 0.00 74 1016.1
20260830230658 81 0 0.0 0.0 0.00 0.00 0.00 74 1016.0
20260830225658 81 0 0.0 0.0 0.00 0.00 0.00 74 1016.0
20260830225157 82 0 0.0 0.0 0.00 0.00 0.00 74 1016.0
20260830224700 82 0 0.0 0.0 0.00 0.00 0.00 73 1016.0
20260830224158 82 0 0.0 0.0 0.00 0.00 0.00 73 1016.0
20260830223657 82 0 0.0 0.0 0.00 0.00 0.00 72 1016.0
20260830223158 82 0 0.0 0.0 0.00 0.00 0.00 72 1016.0
20260830222658 82 0 0.0 0.0 0.00 0.00 0.00 72 1016.0
20260830221658 82 0 0.0 0.0 0.00 0.00 0.00 72 1016.0
20260830221157 82 0 0.0 0.0 0.00 0.00 0.00 71 1016.0
20260830220658 83 0 0.0 0.0 0.00 0.00 0.00 71 1015.9
20260830220158 83 0 0.0 0.0 0.00 0.00 0.00 70 1015.9
20260830215657 83 0 0.0 0.0 0.00 0.00 0.00 69 1015.9
20260830215158 83 0 0.0 0.0 0.00 0.00 0.00 69 1015.9
20260830214700 83 0 0.0 0.0 0.00 0.00 0.00 70 1015.9
20260830214157 83 0 0.0 0.0 0.00 0.00 0.00 69 1015.9
20260830213658 83 0 0.0 0.0 0.00 0.00 0.00 68 1015.9
20260830213203 83 0 0.0 0.0 0.00 0.00 0.00 70 1015.9
20260830212158 83 0 0.0 0.0 0.00 0.00 0.00 69 1016.0
20260830211659 83 0 0.0 0.0 0.00 0.00 0.00 70 1016.0
20260830211158 83 0 0.0 0.0 0.00 0.00 0.00 70 1016.0
20260830210658 83 0 0.0 0.0 0.00 0.00 0.00 69 1016.1
20260830210200 83 0 0.0 0.0 0.00 0.00 0.00 68 1016.1
20260830205658 83 0 0.0 0.0 0.00 0.00 0.00 69 1016.1
20260830205157 83 0 0.0 0.0 0.00 0.00 0.00 71 1016.2
20260830204511 83 0 0.0 0.0 0.00 0.00 0.00 69 1016.2
20260830204009 83 0 0.0 0.0 0.00 0.00 0.00 74 1016.2
20260830203512 82 0 0.0 0.0 0.00 0.00 0.00 70 1016.2
20260830202728 83 0 0.0 0.0 0.00 0.00 0.00 71 1016.2
20260830202232 83 0 0.0 0.0 0.00 0.00 0.00 72 1016.3
20260830201729 83 0 0.0 0.0 0.00 0.00 0.00 70 1016.3
20260830201233 83 0 0.0 0.0 0.00 0.00 0.00 69 1016.3
20260830200729 83 0 0.0 0.0 0.00 0.00 0.00 71 1016.5
20260830200228 83 0 0.0 0.0 0.00 0.00 0.00 70 1016.5
20260830195728 83 0 0.0 0.0 0.00 0.00 0.00 70 1016.5
20260830195229 83 0 0.0 0.0 0.00 0.00 0.00 71 1016.8
20260830194728 83 0 0.0 0.0 0.00 0.00 0.00 70 1016.8
20260830194228 83 0 0.0 0.0 0.00 0.00 0.00 71 1016.8
20260830193729 83 0 0.0 0.0 0.00 0.00 0.00 70 1016.9
20260830193225 83 0 0.0 0.0 0.00 0.00 0.00 71 1016.9
20260830192720 82 0 0.0 0.0 0.00 0.00 0.00 72 1016.9
20260830192220 82 0 0.0 0.0 0.00 0.00 0.00 72 1017.0
20260830191721 82 0 0.0 0.0 0.00 0.00 0.00 75 1017.0
20260830191221 81 0 0.0 0.0 0.00 0.00 0.00 77 1017.0
20260830190722 81 0 0.0 0.0 0.00 0.00 0.00 78 1017.2
20260830190228 81 0 0.0 0.0 0.00 0.00 0.00 76 1017.2
20260830185720 80 0 0.0 0.0 0.00 0.00 0.00 79 1017.2
20260830185219 80 0 0.0 0.0 0.00 0.00 0.00 77 1017.6
20260830184720 80 0 0.0 0.0 0.00 0.00 0.00 75 1017.6
20260830184220 81 0 0.0 0.0 0.00 0.00 0.00 75 1017.6
20260830183720 81 0 0.0 0.0 0.00 0.00 0.00 76 1017.9
20260830183220 81 0 0.0 0.0 0.00 0.00 0.00 74 1017.9
20260830182721 81 0 0.0 0.0 0.00 0.00 0.00 77 1017.9
20260830182220 81 0 0.0 0.0 0.00 0.00 0.00 77 1018.2
20260830181739 80 0 0.0 0.0 0.00 0.00 0.00 77 1018.2
20260830181220 80 0 0.0 0.0 0.00 0.00 0.00 76 1018.2
20260830180720 80 0 0.0 0.0 0.00 0.00 0.00 78 1018.4
20260830180227 80 0 0.0 0.0 0.00 0.00 0.00 78 1018.4
20260830175720 80 0 0.0 0.0 0.00 0.00 0.00 77 1018.4
20260830175220 80 0 0.0 0.0 0.00 0.00 0.00 77 1018.5
20260830174720 80 0 0.0 0.0 0.00 0.00 0.00 76 1018.5
20260830174228 80 0 0.0 0.0 0.00 0.00 0.00 74 1018.5
20260830173721 80 0 0.0 0.0 0.00 0.00 0.00 75 1018.6
20260830173220 80 0 0.0 0.0 0.00 0.00 0.00 77 1018.6
20260830172719 79 0 0.0 0.0 0.00 0.00 0.00 77 1018.6
20260830172220 79 0 0.0 0.0 0.00 0.00 0.00 78 1018.8
20260830171720 79 0 0.0 0.0 0.00 0.00 0.00 78 1018.8
20260830171219 78 0 0.0 0.0 0.00 0.00 0.00 80 1018.8
20260830170720 78 0 0.0 0.0 0.00 0.00 0.00 80 1019.0
20260830170229 78 0 0.0 0.0 0.00 0.00 0.00 80 1019.0
20260830165722 78 0 0.0 0.0 0.00 0.00 0.00 81 1019.0
20260830165226 78 0 0.0 0.0 0.00 0.00 0.00 79 1019.0
20260830164721 78 0 0.0 0.0 0.00 0.00 0.00 80 1019.0
20260830164220 78 0 0.0 0.0 0.00 0.00 0.00 83 1019.0
20260830163243 77 0 0.0 0.0 0.00 0.00 0.00 83 1019.2
20260830162741 77 0 0.0 0.0 0.00 0.00 0.00 83 1019.2
20260830162243 77 0 0.0 0.0 0.00 0.00 0.00 83 1019.3
20260830161741 77 0 0.0 0.0 0.00 0.00 0.00 83 1019.3
20260830161241 77 0 0.0 0.0 0.00 0.00 0.00 84 1019.3
20260830160743 77 0 0.0 0.0 0.00 0.00 0.00 84 1019.5
20260830160244 76 0 0.0 0.0 0.00 0.00 0.00 85 1019.5
20260830155742 76 0 0.0 0.0 0.00 0.00 0.00 87 1019.5
20260830155242 76 0 0.0 0.0 0.00 0.00 0.00 87 1019.4
20260830154742 76 0 0.0 0.0 0.00 0.00 0.00 88 1019.4
20260830154244 76 0 0.0 0.0 0.00 0.00 0.00 88 1019.4
20260830153742 76 0 0.0 0.0 0.00 0.00 0.00 88 1019.5
20260830153241 75 0 0.0 0.0 0.00 0.00 0.00 88 1019.5
20260830152741 75 0 0.0 0.0 0.00 0.00 0.00 88 1019.5
20260830152241 75 0 0.0 0.0 0.00 0.00 0.00 88 1019.5
20260830151741 75 0 0.0 0.0 0.00 0.00 0.00 88 1019.5
20260830151241 75 0 0.0 0.0 0.00 0.00 0.00 88 1019.5
20260830150741 75 0 0.0 0.0 0.00 0.00 0.00 89 1019.5
20260830150241 75 0 0.0 0.0 0.00 0.00 0.00 90 1019.5
20260830145741 75 0 0.0 0.0 0.00 0.00 0.00 89 1019.5
20260830145241 74 0 0.0 0.0 0.00 0.00 0.00 90 1019.3
20260830144741 74 0 0.0 0.0 0.00 0.00 0.00 90 1019.3
20260830144241 74 0 0.0 0.0 0.00 0.00 0.00 90 1019.3
20260830143747 74 0 0.0 0.0 0.00 0.00 0.00 91 1019.3
20260830143241 74 0 0.0 0.0 0.00 0.00 0.00 92 1019.3
20260830142741 74 0 0.0 0.0 0.00 0.00 0.00 92 1019.3
20260830142241 73 0 0.0 0.0 0.00 0.00 0.00 93 1019.3
20260830141742 73 0 0.0 0.0 0.00 0.00 0.00 93 1019.3
20260830141241 73 0 0.0 0.0 0.00 0.00 0.00 94 1019.3
20260830140744 73 0 0.0 0.0 0.00 0.00 0.00 95 1019.4
20260830140241 72 0 0.0 0.0 0.00 0.00 0.00 95 1019.4
20260830135511 72 0 0.0 0.0 0.00 0.00 0.00 95 1019.4
20260830135011 72 0 0.0 0.0 0.00 0.00 0.00 96 1019.4
20260830134525 72 0 0.0 0.0 0.00 0.00 0.00 96 1019.4
20260830134011 72 0 0.0 0.0 0.00 0.00 0.00 97 1019.5
20260830133511 72 0 0.0 0.0 0.00 0.00 0.00 97 1019.5
20260830133019 72 0 0.0 0.0 0.00 0.00 0.00 97 1019.5
20260830132512 71 0 0.0 0.0 0.00 0.00 0.00 97 1019.6
20260830132011 71 0 0.0 0.0 0.00 0.00 0.00 97 1019.6
20260830131516 71 0 0.0 0.0 0.00 0.00 0.00 97 1019.6
20260830131011 71 0 0.0 0.0 0.00 0.00 0.00 98 1019.5
20260830130519 71 0 0.0 0.0 0.00 0.00 0.00 98 1019.5
20260830130010 71 0 0.0 1.0 0.00 0.00 0.00 97 1019.5
20260830125512 71 0 0.0 1.0 0.00 0.00 0.00 98 1019.5
20260830125011 71 0 0.0 0.0 0.00 0.00 0.00 98 1019.5
20260830124511 71 0 0.0 0.0 0.00 0.00 0.00 98 1019.5
20260830124011 71 0 0.0 0.0 0.00 0.00 0.00 98 1019.3
20260830123511 71 0 0.0 0.0 0.00 0.00 0.00 98 1019.3
20260830122611 71 0 0.0 0.0 0.00 0.00 0.00 98 1019.3
20260830122110 71 0 0.0 0.0 0.00 0.00 0.00 98 1019.1
20260830121610 71 0 0.0 0.0 0.00 0.00 0.00 98 1019.1
20260830121111 71 0 0.0 0.0 0.00 0.00 0.00 98 1019.1
20260830120613 71 0 0.0 0.0 0.00 0.00 0.00 98 1019.1
20260830120110 70 0 0.0 0.0 0.00 0.00 0.00 98 1019.1
20260830115611 70 0 0.0 0.0 0.00 0.00 0.00 98 1019.1
20260830115110 70 0 0.0 0.0 0.00 0.00 0.00 98 1019.0
20260830114610 70 0 0.0 0.0 0.00 0.00 0.00 98 1019.0
20260830114110 70 0 0.0 0.0 0.00 0.00 0.00 98 1019.0
20260830113612 70 0 0.0 0.0 0.00 0.00 0.00 98 1018.8
20260830113110 70 0 0.0 0.0 0.00 0.00 0.00 97 1018.8
20260830112610 70 0 0.0 0.0 0.00 0.00 0.00 97 1018.8
20260830112110 70 0 0.0 0.0 0.00 0.00 0.00 97 1018.5
20260830111613 70 0 0.0 0.0 0.00 0.00 0.00 97 1018.5
20260830111110 70 0 0.0 0.0 0.00 0.00 0.00 97 1018.5
20260830110613 70 0 0.0 0.0 0.00 0.00 0.00 97 1018.4
20260830110110 70 0 0.0 0.0 0.00 0.00 0.00 97 1018.4
20260830105610 70 0 0.0 0.0 0.00 0.00 0.00 97 1018.4
20260830105110 70 0 0.0 0.0 0.00 0.00 0.00 97 1018.3
20260830104610 70 0 0.0 0.0 0.00 0.00 0.00 97 1018.3
20260830104146 70 0 0.0 0.0 0.00 0.00 0.00 97 1018.3
20260830104110 70 0 0.0 0.0 0.00 0.00 0.00 97 1018.3
20260830103610 70 0 0.0 0.0 0.00 0.00 0.00 97 1018.2
20260830103110 70 0 0.0 0.0 0.00 0.00 0.00 97 1018.2
20260830102610 70 0 0.0 0.0 0.00 0.00 0.00 97 1018.2
20260830102141 70 0 0.0 0.0 0.00 0.00 0.00 97 1018.0
20260830102110 70 0 0.0 0.0 0.00 0.00 0.00 97 1018.0
20260830101612 70 0 0.0 0.0 0.00 0.00 0.00 97 1018.0
20260830101119 70 0 0.0 0.0 0.00 0.00 0.00 97 1018.0
20260830100610 70 0 0.0 0.0 0.00 0.00 0.00 97 1017.9
20260830100153 70 0 0.0 0.0 0.00 0.00 0.00 97 1017.9
20260830100110 70 0 0.0 0.0 0.00 0.00 0.00 97 1017.9
20260830095610 70 0 0.0 0.0 0.00 0.00 0.00 97 1017.9
20260830095110 70 0 0.0 0.0 0.00 0.00 0.00 97 1017.8
20260830094611 70 0 0.0 0.0 0.00 0.00 0.00 97 1017.8
20260830094113 70 0 0.0 0.0 0.00 0.00 0.00 97 1017.8
20260830093613 70 0 0.0 0.0 0.00 0.00 0.00 97 1017.7
20260830093146 70 0 0.0 0.0 0.00 0.00 0.00 97 1017.7
20260830093114 70 0 0.0 0.0 0.00 0.00 0.00 97 1017.7
20260830092610 70 0 0.0 0.0 0.00 0.00 0.00 97 1017.7
20260830092115 70 0 0.0 0.0 0.00 0.00 0.00 97 1017.7
20260830091610 70 0 0.0 0.0 0.00 0.00 0.00 97 1017.7
20260830091114 70 0 0.0 0.0 0.00 0.00 0.00 97 1017.7
20260830090613 70 0 0.0 0.0 0.00 0.00 0.00 97 1017.9
20260830090114 70 0 0.0 0.0 0.00 0.00 0.00 97 1017.9
20260830085610 70 0 0.0 0.0 0.00 0.00 0.00 97 1017.9
20260830085110 70 0 0.0 0.0 0.00 0.00 0.00 97 1018.0
20260830084610 70 0 0.0 0.0 0.00 0.00 0.00 97 1018.0
20260830084114 70 0 0.0 0.0 0.00 0.00 0.00 97 1018.0
20260830083610 70 0 0.0 0.0 0.00 0.00 0.00 97 1018.0
20260830083114 70 0 0.0 0.0 0.00 0.00 0.00 97 1018.0
20260830082610 70 0 0.0 0.0 0.00 0.00 0.00 97 1018.0
20260830082120 70 0 0.0 0.0 0.00 0.00 0.00 97 1018.0
20260830081610 70 0 0.0 0.0 0.00 0.00 0.00 97 1018.0
20260830081113 70 0 0.0 0.0 0.00 0.00 0.00 97 1018.0
20260830080612 70 0 0.0 0.0 0.00 0.00 0.00 96 1017.9
20260830080114 70 0 0.0 0.0 0.00 0.00 0.00 96 1017.9
20260830075610 70 0 0.0 0.0 0.00 0.00 0.00 96 1017.9
20260830075113 70 0 0.0 0.0 0.00 0.00 0.00 97 1018.1
20260830074610 71 0 0.0 0.0 0.00 0.00 0.00 97 1018.1
20260830074113 71 0 0.0 0.0 0.00 0.00 0.00 97 1018.1
20260830073613 71 0 0.0 0.0 0.00 0.00 0.00 97 1018.1
20260830073113 71 0 0.0 0.0 0.00 0.00 0.00 97 1018.1
20260830072610 71 0 0.0 0.0 0.00 0.00 0.00 97 1018.1
20260830072112 71 0 0.0 0.0 0.00 0.00 0.00 97 1018.1
20260830071610 71 0 0.0 0.0 0.00 0.00 0.00 96 1018.1
20260830071113 71 0 0.0 0.0 0.00 0.00 0.00 97 1018.1
20260830070613 71 0 0.0 0.0 0.00 0.00 0.00 97 1018.3
20260830070112 71 0 0.0 0.0 0.00 0.00 0.00 96 1018.3
20260830065609 71 0 0.0 0.0 0.00 0.00 0.00 96 1018.3
20260830065112 71 0 0.0 0.0 0.00 0.00 0.00 96 1018.3
20260830064610 71 0 0.0 0.0 0.00 0.00 0.00 96 1018.3
20260830064111 71 0 0.0 0.0 0.00 0.00 0.00 96 1018.3
20260830063622 71 0 0.0 0.0 0.00 0.00 0.00 96 1018.1
20260830063114 71 0 0.0 0.0 0.00 0.00 0.00 96 1018.1
20260830062609 71 0 0.0 0.0 0.00 0.00 0.00 96 1018.1
20260830062113 71 0 0.0 0.0 0.00 0.00 0.00 96 1018.2
20260830061613 71 0 0.0 0.0 0.00 0.00 0.00 96 1018.2
20260830061112 71 0 0.0 0.0 0.00 0.00 0.00 96 1018.2
20260830060612 71 0 0.0 0.0 0.00 0.00 0.00 96 1018.3
20260830060112 71 0 0.0 0.0 0.00 0.00 0.00 96 1018.3
20260830055611 71 0 0.0 1.0 0.00 0.00 0.00 96 1018.3
20260830055111 71 0 0.0 1.0 0.00 0.00 0.00 95 1018.3
20260830054611 71 0 0.0 0.0 0.00 0.00 0.00 95 1018.3
20260830054110 71 0 0.0 0.0 0.00 0.00 0.00 95 1018.3
20260830053610 71 0 0.0 0.0 0.00 0.00 0.00 95 1018.6
20260830053110 72 0 0.0 0.0 0.00 0.00 0.00 95 1018.6
20260830052610 72 0 0.0 0.0 0.00 0.00 0.00 95 1018.6
20260830052110 72 0 0.0 0.0 0.00 0.00 0.00 95 1018.6
20260830051609 72 0 0.0 0.0 0.00 0.00 0.00 95 1018.6
20260830051112 72 0 0.0 0.0 0.00 0.00 0.00 95 1018.6
20260830050617 72 0 0.0 0.0 0.00 0.00 0.00 94 1018.6
20260830050110 72 0 0.0 0.0 0.00 0.00 0.00 94 1018.6
20260830045614 72 0 0.0 0.0 0.00 0.00 0.00 94 1018.6
20260830044848 72 0 0.0 0.0 0.00 0.00 0.00 94 1018.7
20260830044347 72 0 0.0 0.0 0.00 0.00 0.00 94 1018.7
20260830043849 72 0 0.0 0.0 0.00 0.00 0.00 94 1019.0
20260830043348 72 0 0.0 0.0 0.00 0.00 0.00 94 1019.0
20260830042847 72 0 0.0 0.0 0.00 0.00 0.00 94 1019.0
20260830042347 72 0 0.0 0.0 0.00 0.00 0.00 94 1019.0
20260830041847 72 0 0.0 0.0 0.00 0.00 0.00 94 1019.0
20260830041347 72 0 0.0 0.0 0.00 0.00 0.00 94 1019.0
20260830040735 72 0 0.0 0.0 0.00 0.00 0.00 94 1019.1
20260830040236 72 0 0.0 0.0 0.00 0.00 0.00 94 1019.1
20260830035739 72 0 0.0 0.0 0.00 0.00 0.00 94 1019.1
20260830035235 72 0 0.0 0.0 0.00 0.00 0.00 94 1019.1
20260830034738 72 0 0.0 0.0 0.00 0.00 0.00 93 1019.1
20260830034235 72 0 0.0 0.0 0.00 0.00 0.00 93 1019.1
20260830033737 72 0 0.0 0.0 0.00 0.00 0.00 93 1018.7